GEESAT 3-01

导读

**GEESAT 3-01卫星**是中国于北京时间2024年9月5日08:00发射的一颗国产卫星。作为GEESAT 3系列的首发星,该卫星主要服务于商业遥感领域,可提供高分辨率对地观测数据,广泛应用于国土资源勘查、环境监测、城市规划等多个领域,将进一步提升我国商业航天的遥感服务能力,推动空间信息应用产业发展。

Basic Information
目录编号:
61011
目录名称:
GEESAT 3-01
国际标识:
2024-159A
轨道中心:
EARTH
卫星名称:
GEESAT 3-01
卫星全名:
GEESAT 3-01
卫星状态:
在轨 (已飞行737 天)
发射日期:
2024-09-05 UTC
国别 :
中国 (CN)
星等 :
--
This satellite is enrolled in the Space Conjunction Data Service (SCDS) and the current flight risk assessment level is: No High Risk
Orbit Information
数据来源 国际轨道数据 AOE轨道数据
星历时间 2026-09-12T05:59:57+0800
6小时前
查看轨道信息
2026-09-10T02:00:00+0800
2天前
查看轨道信息
半长轴 6993.403km 6993.354km
偏心率 0.0002698 0.0002575
轨道倾角 50.001° 50.000°
近地点辐角 215.222° 206.824°
升交点赤经 40.727° 50.782°
平近点角 144.854° 86.262°
近地点 613.379km 613.416km
远地点 617.153km 617.018km
周期 97.005分钟 97.004分钟
每日圈数 14.84465 14.844805
Detailed Information
使用方式:
暂无
2D Orbit Map
3D Orbit Map
Orbit Altitude Analysis Chart
Orbit Inclination Analysis Chart
Orbit Comprehensive Analysis Chart
View Comprehensive Chart
Miss Distance Evolution Trend with All Objects
Collision Probability Evolution Trend with All Objects